EW2672 Weather Reports


Display with metric or nautical units.
time (UTC)temp
F
wind
direction
speed
MPH
gust
MPH
rain 1hr
in
rain 24hr
in
rain mn
in
humidity
%
barometer
mb
20260906232324 93 174 1.0 7.0 0.00 0.00 0.00 49 1011.6
20260906231822 93 173 3.0 9.0 0.00 0.00 0.00 49 1011.7
20260906231320 94 159 5.0 8.0 0.00 0.00 0.00 48 1011.7
20260906230816 94 157 2.0 6.0 0.00 0.00 0.00 48 1011.8
20260906230314 94 157 1.0 7.0 0.00 0.00 0.00 48 1011.8
20260906225812 95 157 2.0 7.0 0.00 0.00 0.00 47 1011.9
20260906225310 96 158 1.0 7.0 0.00 0.00 0.00 47 1011.9
20260906224806 96 158 2.0 7.0 0.00 0.00 0.00 47 1011.9
20260906224304 96 157 2.0 6.0 0.00 0.00 0.00 46 1011.9
20260906223802 96 158 1.0 8.0 0.00 0.00 0.00 46 1011.8
20260906223300 96 157 2.0 8.0 0.00 0.00 0.00 44 1011.8
20260906222756 96 154 1.0 5.0 0.00 0.00 0.00 44 1011.8
20260906222254 96 154 1.0 6.0 0.00 0.00 0.00 43 1011.9
20260906221750 97 154 1.0 6.0 0.00 0.00 0.00 44 1012.0
20260906221248 97 154 1.0 3.0 0.00 0.00 0.00 43 1012.0
20260906220746 97 0.0 6.0 0.00 0.00 0.00 43 1012.1
20260906220244 97 0.0 6.0 0.00 0.00 0.00 43 1012.2
20260906215740 96 154 1.0 5.0 0.00 0.00 0.00 44 1012.1
20260906215238 96 154 1.0 3.0 0.00 0.00 0.00 43 1012.2
20260906214736 96 0.0 2.0 0.00 0.00 0.00 43 1012.2
20260906214234 95 0.0 3.0 0.00 0.00 0.00 45 1012.1
20260906213730 95 0.0 3.0 0.00 0.00 0.00 45 1012.3
20260906213228 95 0.0 2.0 0.00 0.00 0.00 45 1012.4
20260906212726 94 0.0 2.0 0.00 0.00 0.00 46 1012.5
20260906212224 94 0.0 6.0 0.00 0.00 0.00 46 1012.5
20260906211720 94 154 1.0 6.0 0.00 0.00 0.00 46 1012.5
20260906211218 95 0.0 2.0 0.00 0.00 0.00 45 1012.6
20260906210716 95 0.0 6.0 0.00 0.00 0.00 45 1012.7
20260906210214 95 154 1.0 6.0 0.00 0.00 0.00 45 1012.7
20260906205710 95 0.0 1.0 0.00 0.00 0.00 45 1012.7
20260906205208 95 0.0 5.0 0.00 0.00 0.00 45 1012.8
20260906204706 95 0.0 5.0 0.00 0.00 0.00 45 1012.9
20260906204204 95 0.0 5.0 0.00 0.00 0.00 46 1012.9
20260906203700 96 154 2.0 5.0 0.00 0.00 0.00 45 1013.1
20260906203158 96 0.0 2.0 0.00 0.00 0.00 45 1013.0
20260906202656 96 0.0 2.0 0.00 0.00 0.00 44 1013.0
20260906202154 96 0.0 2.0 0.00 0.00 0.00 43 1013.2
20260906201650 96 0.0 3.0 0.00 0.00 0.00 45 1013.2
20260906201148 95 0.0 3.0 0.00 0.00 0.00 46 1013.2
20260906200646 95 0.0 8.0 0.00 0.00 0.00 46 1013.3
20260906200144 95 154 2.0 8.0 0.00 0.00 0.00 47 1013.5
20260906195640 94 0.0 3.0 0.00 0.00 0.00 47 1013.4
20260906195138 94 0.0 8.0 0.00 0.00 0.00 48 1013.4
20260906194636 93 0.0 8.0 0.00 0.00 0.00 51 1013.5
20260906194134 93 153 2.0 6.0 0.00 0.00 0.00 50 1013.6
20260906193630 93 153 2.0 5.0 0.00 0.00 0.00 50 1013.6
20260906193128 94 0.0 7.0 0.00 0.00 0.00 50 1013.6
20260906192624 95 154 2.0 7.0 0.00 0.00 0.00 48 1013.8
20260906192122 96 0.0 4.0 0.00 0.00 0.00 48 1013.8
20260906191620 95 1.0 4.0 0.00 0.00 0.00 48 1013.8
20260906191118 95 1.0 7.0 0.00 0.00 0.00 48 1013.9
20260906190614 95 142 2.0 7.0 0.00 0.00 0.00 49 1014.0
20260906190112 95 141 3.0 7.0 0.00 0.00 0.00 49 1014.0
20260906185610 94 140 1.0 9.0 0.00 0.00 0.00 50 1014.0
20260906185108 93 116 3.0 8.0 0.00 0.00 0.00 50 1014.0
20260906184604 93 117 1.0 8.0 0.00 0.00 0.00 50 1014.1
20260906184102 93 140 1.0 5.0 0.00 0.00 0.00 49 1014.1
20260906183600 93 140 2.0 5.0 0.00 0.00 0.00 50 1014.2
20260906183058 93 140 1.0 4.0 0.00 0.00 0.00 49 1014.3
20260906182554 93 140 1.0 3.0 0.00 0.00 0.00 47 1014.3
20260906182052 92 0.0 4.0 0.00 0.00 0.00 43 1014.4
20260906181550 92 0.0 5.0 0.00 0.00 0.00 45 1014.4
20260906181048 91 140 2.0 8.0 0.00 0.00 0.00 49 1014.6
20260906180544 91 140 2.0 8.0 0.00 0.00 0.00 52 1014.7
20260906180042 91 0.0 4.0 0.00 0.00 0.00 56 1014.8
20260906175540 90 140 1.0 4.0 0.00 0.00 0.00 58 1014.9
20260906175038 90 0.0 3.0 0.00 0.00 0.00 57 1015.1
20260906174534 89 0.0 1.0 0.00 0.00 0.00 59 1015.1
20260906174032 89 0.0 4.0 0.00 0.00 0.00 61 1015.3
20260906173530 89 0.0 5.0 0.00 0.00 0.00 62 1015.3
20260906173028 88 140 1.0 8.0 0.00 0.00 0.00 62 1015.4
20260906172524 88 140 3.0 8.0 0.00 0.00 0.00 66 1015.4
20260906172022 87 139 2.0 5.0 0.00 0.00 0.00 67 1015.6
20260906171520 87 140 2.0 7.0 0.00 0.00 0.00 68 1015.7
20260906171018 87 140 3.0 7.0 0.00 0.00 0.00 67 1015.8
20260906170514 86 139 2.0 5.0 0.00 0.00 0.00 69 1015.9
20260906170012 86 139 2.0 5.0 0.00 0.00 0.00 70 1016.0
20260906165508 86 0.0 4.0 0.00 0.00 0.00 69 1015.9
20260906165006 86 0.0 4.0 0.00 0.00 0.00 68 1016.0
20260906164504 86 0.0 3.0 0.00 0.00 0.00 68 1016.1
20260906164002 86 0.0 4.0 0.00 0.00 0.00 68 1016.0
20260906163458 87 139 2.0 4.0 0.00 0.00 0.00 67 1016.0
20260906162956 86 139 1.0 3.0 0.00 0.00 0.00 67 1016.0
20260906162454 86 0.0 3.0 0.00 0.00 0.00 67 1016.0
20260906161952 86 0.0 1.0 0.00 0.00 0.00 68 1016.0
20260906161448 86 0.0 1.0 0.00 0.00 0.00 68 1016.0
20260906160946 85 0.0 1.0 0.00 0.00 0.00 69 1016.0
20260906160444 85 0.0 2.0 0.00 0.00 0.00 70 1016.0
20260906155942 85 0.0 2.0 0.00 0.00 0.00 70 1016.0
20260906155437 85 0.0 2.0 0.00 0.00 0.00 71 1015.9
20260906154936 84 0.0 3.0 0.00 0.00 0.00 71 1015.8
20260906154434 85 139 1.0 3.0 0.00 0.00 0.00 71 1015.8
20260906153931 85 0.0 0.0 0.00 0.00 0.00 69 1015.7
20260906153427 84 0.0 0.0 0.00 0.00 0.00 69 1015.6
20260906152926 84 0.0 3.0 0.00 0.00 0.00 69 1015.6
20260906152423 84 139 1.0 4.0 0.00 0.00 0.00 70 1015.5
20260906151921 84 139 1.0 4.0 0.00 0.00 0.00 70 1015.4
20260906151417 84 139 2.0 4.0 0.00 0.00 0.00 70 1015.4
20260906150915 84 0.0 0.0 0.00 0.00 0.00 69 1015.3
20260906150413 84 0.0 2.0 0.00 0.00 0.00 71 1015.3
20260906145911 83 0.0 3.0 0.00 0.00 0.00 72 1015.3
20260906145407 83 139 1.0 3.0 0.00 0.00 0.00 73 1015.3
20260906144905 83 139 1.0 2.0 0.00 0.00 0.00 73 1015.2
20260906144403 83 0.0 2.0 0.00 0.00 0.00 74 1015.2
20260906143901 82 0.0 3.0 0.00 0.00 0.00 73 1015.2
20260906143357 82 139 2.0 3.0 0.00 0.00 0.00 74 1015.2
20260906142855 82 0.0 2.0 0.00 0.00 0.00 75 1015.2
20260906142351 82 0.0 2.0 0.00 0.00 0.00 76 1015.2
20260906141849 82 0.0 2.0 0.00 0.00 0.00 77 1015.2
20260906141347 81 0.0 0.0 0.00 0.00 0.00 78 1015.2
20260906140845 81 0.0 0.0 0.00 0.00 0.00 79 1015.1
20260906140341 81 0.0 0.0 0.00 0.00 0.00 79 1015.1
20260906135839 81 0.0 0.0 0.00 0.00 0.00 79 1015.1
20260906135337 81 0.0 0.0 0.00 0.00 0.00 80 1015.1
20260906134835 80 0.0 0.0 0.00 0.00 0.00 81 1015.0
20260906134331 80 0.0 0.0 0.00 0.00 0.00 81 1015.0
20260906133829 80 0.0 0.0 0.00 0.00 0.00 81 1015.0
20260906133327 80 0.0 0.0 0.00 0.00 0.00 81 1014.9
20260906132825 80 0.0 0.0 0.00 0.00 0.00 81 1014.9
20260906132321 80 0.0 0.0 0.00 0.00 0.00 81 1014.8
20260906131819 80 0.0 0.0 0.00 0.00 0.00 81 1014.7
20260906131317 79 0.0 0.0 0.00 0.00 0.00 81 1014.6
20260906130815 79 0.0 0.0 0.00 0.00 0.00 81 1014.6
20260906130311 79 0.0 0.0 0.00 0.00 0.00 82 1014.5
20260906125809 79 0.0 0.0 0.00 0.00 0.00 82 1014.5
20260906125307 78 0.0 0.0 0.00 0.00 0.00 83 1014.4
20260906124805 78 0.0 0.0 0.00 0.00 0.00 84 1014.3
20260906124301 77 0.0 0.0 0.00 0.00 0.00 84 1014.2
20260906123759 77 0.0 0.0 0.00 0.00 0.00 84 1014.1
20260906123257 77 0.0 0.0 0.00 0.00 0.00 84 1014.1
20260906122755 77 0.0 0.0 0.00 0.00 0.00 84 1014.0
20260906122251 77 0.0 0.0 0.00 0.00 0.00 84 1014.0
20260906121749 77 0.0 0.0 0.00 0.00 0.00 83 1013.8
20260906121247 77 0.0 0.0 0.00 0.00 0.00 83 1013.7
20260906120745 77 0.0 0.0 0.00 0.00 0.00 83 1013.6
20260906120241 77 0.0 0.0 0.00 0.00 0.00 83 1013.5
20260906115739 77 0.0 0.0 0.00 0.00 0.00 83 1013.4
20260906115237 77 0.0 0.0 0.00 0.00 0.00 82 1013.3
20260906114733 77 0.0 0.0 0.00 0.00 0.00 82 1013.2
20260906114231 77 0.0 0.0 0.00 0.00 0.00 82 1013.2
20260906113729 77 0.0 0.0 0.00 0.00 0.00 82 1013.2
20260906113225 77 0.0 0.0 0.00 0.00 0.00 81 1013.1
20260906112723 77 0.0 0.0 0.00 0.00 0.00 81 1013.2
20260906112221 78 0.0 0.0 0.00 0.00 0.00 80 1013.1
20260906111719 78 0.0 0.0 0.00 0.00 0.00 80 1013.1
20260906111215 78 0.0 0.0 0.00 0.00 0.00 80 1013.1
20260906110713 78 0.0 0.0 0.00 0.00 0.00 79 1013.0
20260906110211 79 0.0 0.0 0.00 0.00 0.00 79 1013.0
20260906105709 79 0.0 0.0 0.00 0.00 0.00 79 1013.0
20260906105205 79 0.0 0.0 0.00 0.00 0.00 79 1013.1
20260906104703 79 0.0 0.0 0.00 0.00 0.00 78 1013.0
20260906104201 79 0.0 0.0 0.00 0.00 0.00 78 1013.0
20260906103659 80 0.0 0.0 0.00 0.00 0.00 78 1012.9
20260906103155 80 0.0 0.0 0.00 0.00 0.00 77 1012.9
20260906102653 80 0.0 0.0 0.00 0.00 0.00 77 1012.8
20260906102151 80 0.0 0.0 0.00 0.00 0.00 77 1012.9
20260906101649 80 0.0 0.0 0.00 0.00 0.00 77 1012.8
20260906101145 80 0.0 0.0 0.00 0.00 0.00 77 1012.8
20260906100643 80 0.0 0.0 0.00 0.00 0.00 77 1012.7
20260906100141 80 0.0 0.0 0.00 0.00 0.00 77 1012.7
20260906095639 80 0.0 0.0 0.00 0.00 0.00 76 1012.8
20260906095135 80 0.0 0.0 0.00 0.00 0.00 76 1012.8
20260906094633 80 0.0 0.0 0.00 0.00 0.00 76 1012.8
20260906094131 80 0.0 0.0 0.00 0.00 0.00 76 1012.7
20260906093629 81 0.0 2.0 0.00 0.00 0.00 76 1012.6
20260906093125 81 0.0 2.0 0.00 0.00 0.00 75 1012.7
20260906092623 81 0.0 2.0 0.00 0.00 0.00 75 1012.7
20260906092121 81 0.0 2.0 0.00 0.00 0.00 75 1012.7
20260906091619 81 139 1.0 2.0 0.00 0.00 0.00 75 1012.6
20260906091115 81 0.0 0.0 0.00 0.00 0.00 75 1012.6
20260906090613 81 0.0 7.0 0.00 0.00 0.00 75 1012.6
20260906090109 81 139 1.0 7.0 0.00 0.00 0.00 75 1012.7
20260906085607 82 139 2.0 5.0 0.00 0.00 0.00 75 1012.6
20260906085105 82 139 1.0 4.0 0.00 0.00 0.00 74 1012.6
20260906084603 82 0.0 5.0 0.00 0.00 0.00 74 1012.7
20260906084059 82 139 1.0 5.0 0.00 0.00 0.00 74 1012.7
20260906083557 82 139 1.0 3.0 0.00 0.00 0.00 74 1012.7
20260906083055 82 139 1.0 3.0 0.00 0.00 0.00 74 1012.7
20260906082553 82 0.0 3.0 0.00 0.00 0.00 74 1012.7
20260906082049 82 0.0 3.0 0.00 0.00 0.00 74 1012.7
20260906081547 82 0.0 3.0 0.00 0.00 0.00 73 1012.7
20260906081045 83 139 1.0 4.0 0.00 0.00 0.00 73 1012.7
20260906080543 83 139 1.0 5.0 0.00 0.00 0.00 73 1012.8
20260906080039 83 139 2.0 5.0 0.00 0.00 0.00 73 1012.8
20260906075537 83 139 1.0 4.0 0.00 0.00 0.00 73 1012.8
20260906075035 83 139 1.0 5.0 0.00 0.00 0.00 73 1012.9
20260906074533 83 139 2.0 5.0 0.00 0.00 0.00 73 1013.0
20260906074029 83 139 1.0 4.0 0.00 0.00 0.00 73 1013.1
20260906073527 83 139 1.0 3.0 0.00 0.00 0.00 73 1013.1
20260906073025 83 139 2.0 4.0 0.00 0.00 0.00 73 1013.2
20260906072523 83 139 2.0 4.0 0.00 0.00 0.00 73 1013.2
20260906072019 83 0.0 5.0 0.00 0.00 0.00 73 1013.3
20260906071517 83 0.0 5.0 0.00 0.00 0.00 73 1013.2
20260906071015 83 139 2.0 4.0 0.00 0.00 0.00 73 1013.4
20260906070513 83 0.0 4.0 0.00 0.00 0.00 73 1013.4
20260906070009 83 139 2.0 5.0 0.00 0.00 0.00 73 1013.6
20260906065507 83 139 2.0 5.0 0.00 0.00 0.00 73 1013.5
20260906065005 83 139 1.0 5.0 0.00 0.00 0.00 74 1013.6
20260906064503 82 139 1.0 4.0 0.00 0.00 0.00 73 1013.6
20260906063959 82 139 1.0 4.0 0.00 0.00 0.00 73 1013.7
20260906063457 82 139 1.0 4.0 0.00 0.00 0.00 74 1013.7
20260906062953 82 139 1.0 4.0 0.00 0.00 0.00 74 1013.7
20260906062451 82 0.0 3.0 0.00 0.00 0.00 74 1013.6
20260906061949 82 0.0 3.0 0.00 0.00 0.00 74 1013.6
20260906061447 82 139 1.0 2.0 0.00 0.00 0.00 74 1013.5
20260906060943 82 0.0 2.0 0.00 0.00 0.00 74 1013.6
20260906060441 82 0.0 1.0 0.00 0.00 0.00 73 1013.7
20260906055939 82 0.0 0.0 0.00 0.00 0.00 73 1013.8
20260906055437 83 0.0 0.0 0.00 0.00 0.00 73 1013.9
20260906054933 83 0.0 2.0 0.00 0.00 0.00 73 1013.9
20260906054431 83 0.0 2.0 0.00 0.00 0.00 73 1013.9
20260906053929 83 0.0 2.0 0.00 0.00 0.00 72 1013.8
20260906053427 83 0.0 2.0 0.00 0.00 0.00 72 1013.7
20260906052923 83 0.0 2.0 0.00 0.00 0.00 72 1013.7
20260906052421 83 0.0 2.0 0.00 0.00 0.00 72 1013.7
20260906051919 83 0.0 1.0 0.00 0.00 0.00 72 1013.8
20260906051417 83 139 1.0 2.0 0.00 0.00 0.00 72 1013.8
20260906050913 83 0.0 2.0 0.00 0.00 0.00 72 1013.9
20260906050411 83 0.0 0.0 0.00 0.00 0.00 71 1013.9
20260906045908 83 0.0 0.0 0.00 0.00 0.00 71 1014.0
20260906045406 83 0.0 1.0 0.00 0.00 0.00 71 1014.1
20260906044902 83 0.0 1.0 0.00 0.00 0.00 71 1014.2
20260906044400 83 0.0 3.0 0.00 0.00 0.00 70 1014.1
20260906043858 83 0.0 5.0 0.00 0.00 0.00 70 1014.0
20260906043356 83 139 1.0 5.0 0.00 0.00 0.00 70 1014.0
20260906042852 83 0.0 1.0 0.00 0.00 0.00 70 1014.0
20260906042350 84 0.0 3.0 0.00 0.00 0.00 69 1013.9
20260906041848 84 0.0 3.0 0.00 0.00 0.00 69 1013.9
20260906041346 84 0.0 2.0 0.00 0.00 0.00 69 1013.8
20260906040842 84 0.0 3.0 0.00 0.00 0.00 68 1013.7
20260906040340 84 0.0 3.0 0.00 0.00 0.00 67 1013.7
20260906035838 84 139 1.0 4.0 0.00 0.00 0.00 67 1013.7
20260906035336 85 139 1.0 4.0 0.00 0.00 0.00 66 1013.8
20260906034832 85 0.0 4.0 0.00 0.00 0.00 65 1013.7
20260906034330 85 139 1.0 4.0 0.00 0.00 0.00 65 1013.8
20260906033828 85 139 1.0 7.0 0.00 0.00 0.00 65 1013.8
20260906033326 85 139 1.0 3.0 0.00 0.00 0.00 64 1013.7
20260906032822 86 139 1.0 7.0 0.00 0.00 0.00 64 1013.9
20260906032320 86 139 1.0 7.0 0.00 0.00 0.00 63 1013.8
20260906031818 86 139 1.0 4.0 0.00 0.00 0.00 63 1013.7
20260906031314 86 0.0 4.0 0.00 0.00 0.00 62 1013.7
20260906030812 86 139 2.0 4.0 0.00 0.00 0.00 62 1013.6
20260906030310 86 139 1.0 4.0 0.00 0.00 0.00 61 1013.5
20260906025806 87 0.0 4.0 0.00 0.00 0.00 61 1013.4
20260906025306 87 139 1.0 4.0 0.00 0.00 0.00 60 1013.2
20260906024802 87 0.0 5.0 0.00 0.00 0.00 59 1013.2
20260906024300 87 139 1.0 8.0 0.00 0.00 0.00 58 1013.1
20260906023756 87 138 2.0 8.0 0.00 0.00 0.00 57 1013.0
20260906023254 87 138 1.0 3.0 0.00 0.00 0.00 57 1012.9
20260906022752 88 0.0 4.0 0.00 0.00 0.00 56 1012.8
20260906022250 88 0.0 7.0 0.00 0.00 0.00 56 1012.6
20260906021746 88 0.0 7.0 0.00 0.00 0.00 55 1012.5
20260906021244 88 0.0 2.0 0.00 0.00 0.00 55 1012.4
20260906020742 88 0.0 3.0 0.00 0.00 0.00 55 1012.3
20260906020240 89 0.0 3.0 0.00 0.00 0.00 55 1012.3
20260906015736 89 138 1.0 4.0 0.00 0.00 0.00 55 1012.2
20260906015234 89 138 1.0 5.0 0.00 0.00 0.00 54 1012.0
20260906014732 89 0.0 5.0 0.00 0.00 0.00 54 1012.0
20260906014230 90 0.0 3.0 0.00 0.00 0.00 53 1011.8
20260906013725 90 1.0 8.0 0.00 0.00 0.00 53 1011.9
20260906013225 90 0.0 8.0 0.00 0.00 0.00 53 1011.9
20260906012723 90 137 3.0 8.0 0.00 0.00 0.00 52 1011.8
20260906012221 91 0.0 5.0 0.00 0.00 0.00 53 1011.7
20260906011717 91 0.0 5.0 0.00 0.00 0.00 52 1011.6
20260906011215 91 175 1.0 5.0 0.00 0.00 0.00 52 1011.6
20260906010713 91 175 1.0 3.0 0.00 0.00 0.00 52 1011.6
20260906010211 92 0.0 2.0 0.00 0.00 0.00 52 1011.5
20260906005707 92 175 1.0 6.0 0.00 0.00 0.00 51 1011.5
20260906005205 92 175 1.0 6.0 0.00 0.00 0.00 51 1011.5
20260906004703 92 0.0 4.0 0.00 0.00 0.00 50 1011.5
20260906004201 93 175 1.0 4.0 0.00 0.00 0.00 50 1011.6
20260906003657 93 176 1.0 4.0 0.00 0.00 0.00 49 1011.6
20260906003155 94 0.0 3.0 0.00 0.00 0.00 49 1011.6
20260906002653 94 176 1.0 4.0 0.00 0.00 0.00 49 1011.5
20260906002151 94 176 1.0 4.0 0.00 0.00 0.00 48 1011.4
20260906001647 94 1.0 7.0 0.00 0.00 0.00 47 1011.4
20260906001145 95 179 1.0 8.0 0.00 0.00 0.00 46 1011.4
20260906000643 95 1.0 4.0 0.00 0.00 0.00 45 1011.4
20260906000141 96 181 1.0 4.0 0.00 0.00 0.00 42 1011.4
20260905235637 96 0.0 0.0 0.00 0.00 0.00 41 1011.4
20260905235135 96 0.0 3.0 0.00 0.00 0.00 41 1011.3
20260905234631 97 0.0 3.0 0.00 0.00 0.00 39 1011.2
20260905234129 97 181 1.0 3.0 0.00 0.00 0.00 40 1011.1
20260905233627 97 0.0 2.0 0.00 0.00 0.00 39 1011.1
20260905233125 97 0.0 3.0 0.00 0.00 0.00 39 1011.2
20260905232621 97 0.0 2.0 0.00 0.00 0.00 40 1011.2